Weather History for KPKV - November, 2013

Change the Weather History Date:

Wednesday, November 13, 2013

  Actual Average (KVCT) Record (KVCT)
Temperature  
Mean Temperature 48 °F 64 °F  
Max Temperature 55 °F 75 °F 93 °F (1925)
Min Temperature 40 °F 53 °F 32 °F (1932)
Degree Days  
Heating Degree Days 18 4  
Month to date heating degree days 38  
Since 1 July heating degree days 61  
Cooling Degree Days 0 3  
Month to date cooling degree days 49  
Year to date cooling degree days 3092  
Moisture  
Dew Point 33 °F    
Average Humidity 60    
Maximum Humidity 82    
Minimum Humidity 35    
Precipitation  
Precipitation 0.00 in 0.11 in 1.50 in (1998)
Month to date precipitation 1.49  
Year to date precipitation 37.16  
Snow  
Snow 0.00 in - - ()
Month to date snowfall  
Since 1 July snowfall  
Since 1 September snowfall  
Snow Depth -    
Sea Level Pressure  
Sea Level Pressure 30.51 in    
Wind  
Wind Speed 12 mph (NNE)    
Max Wind Speed 21 mph    
Max Gust Speed 29 mph    
Visibility 10 miles    
Events      
T = Trace of Precipitation, MM = Missing Value Source: NWS Daily Summary

Daily Weather History Graph

Daily Weather History Graph

Search for Another Location

Airport or City:

Trip Planner

Search our weather history database for the weather conditions in past years. The results will help you decide how hot, cold, wet, or windy it might be!

Date:

Astronomy

Nov. 13, 2013 Rise Set
Actual Time 6:48 AM CST 5:33 PM CST
Civil Twilight 6:23 AM CST 5:58 PM CST
Nautical Twilight 5:54 AM CST 6:27 PM CST
Astronomical Twilight 5:26 AM CST 6:55 PM CST
Moon 3:06 PM CST (11/13) 3:00 AM CST (11/13)
Length of Visible Light 11h 35m
Length of Day
10h 45m
Waxing Gibbous, 85% of the Moon is Illuminated
Nov 13
Waxing Gibbous
Nov 17
Full
Nov 25
Last Quarter
Dec 2
New
Dec 9
First Quarter

Hourly Weather History & Observations

Time (CST) Temp. Windchill Dew Point Humidity Pressure Visibility Wind Dir Wind Speed Gust Speed Precip Events Conditions
12:15 AM 50.9 °F - 43.3 °F 75% 30.55 in 10.0 mi North 12.7 mph 19.6 mph N/A   Clear
12:35 AM 50.4 °F - 43.3 °F 77% 30.55 in 10.0 mi North 11.5 mph - N/A   Clear
12:55 AM 50.4 °F - 43.2 °F 76% 30.55 in 10.0 mi North 13.8 mph - N/A   Clear
1:15 AM 49.5 °F - 42.8 °F 78% 30.55 in 10.0 mi North 12.7 mph - N/A   Clear
1:35 AM 49.1 °F - 42.1 °F 77% 30.55 in 10.0 mi North 13.8 mph 17.3 mph N/A   Clear
1:55 AM 48.4 °F - 42.1 °F 79% 30.55 in 10.0 mi North 11.5 mph - N/A   Clear
2:15 AM 47.5 °F - 40.5 °F 77% 30.55 in 10.0 mi North 13.8 mph 19.6 mph N/A   Clear
2:35 AM 46.6 °F - 38.3 °F 73% 30.54 in 10.0 mi North 16.1 mph 23.0 mph N/A   Clear
2:55 AM 45.9 °F 39.1 °F 36.7 °F 70% 30.55 in 10.0 mi North 16.1 mph - N/A   Clear
3:15 AM 45.1 °F 38.1 °F 36.5 °F 72% 30.55 in 10.0 mi North 16.1 mph 20.7 mph N/A   Clear
3:35 AM 44.6 °F 38.1 °F 36.0 °F 72% 30.56 in 10.0 mi North 13.8 mph - N/A   Clear
3:55 AM 43.9 °F 37.2 °F 36.0 °F 74% 30.55 in 10.0 mi North 13.8 mph 20.7 mph N/A   Clear
4:15 AM 43.3 °F 36.1 °F 35.8 °F 75% 30.55 in 10.0 mi North 15.0 mph - N/A   Clear
4:35 AM 43.0 °F 36.0 °F 36.1 °F 77% 30.56 in 10.0 mi North 13.8 mph - N/A   Clear
4:55 AM 42.4 °F 35.7 °F 35.8 °F 77% 30.56 in 10.0 mi North 12.7 mph - N/A   Clear
5:15 AM 41.9 °F 35.4 °F 35.8 °F 79% 30.57 in 10.0 mi North 11.5 mph - N/A   Clear
5:35 AM 41.4 °F 35.2 °F 36.0 °F 81% 30.57 in 10.0 mi North 10.4 mph - N/A   Clear
5:55 AM 41.0 °F 34.3 °F 35.8 °F 82% 30.57 in 10.0 mi North 11.5 mph 17.3 mph N/A   Clear
6:15 AM 41.5 °F 33.2 °F 32.9 °F 71% 30.58 in 10.0 mi NNE 17.3 mph 23.0 mph N/A   Clear
6:35 AM 41.4 °F 33.0 °F 32.0 °F 69% 30.58 in 10.0 mi NNE 17.3 mph 23.0 mph N/A   Clear
6:55 AM 41.0 °F 32.2 °F 32.0 °F 70% 30.59 in 10.0 mi NNE 18.4 mph 21.9 mph N/A   Clear
7:15 AM 40.6 °F 32.3 °F 31.5 °F 70% 30.59 in 10.0 mi NNE 16.1 mph 24.2 mph N/A   Clear
7:35 AM 41.0 °F 32.5 °F 31.6 °F 69% 30.60 in 10.0 mi NNE 17.3 mph 20.7 mph N/A   Clear
7:55 AM 41.7 °F 33.1 °F 31.5 °F 67% 30.60 in 10.0 mi NNE 18.4 mph 25.3 mph N/A   Clear
8:15 AM 42.1 °F 33.1 °F 30.7 °F 64% 30.59 in 10.0 mi NNE 20.7 mph 27.6 mph N/A   Clear
8:35 AM 42.8 °F 34.3 °F 30.0 °F 61% 30.60 in 10.0 mi NNE 19.6 mph 28.8 mph N/A   Clear
8:55 AM 43.7 °F 36.6 °F 30.2 °F 59% 30.60 in 10.0 mi NNE 15.0 mph 21.9 mph N/A   Clear
9:15 AM 43.7 °F 35.7 °F 30.0 °F 59% 30.60 in 10.0 mi NNE 18.4 mph - N/A   Clear
9:35 AM 44.8 °F 37.4 °F 30.6 °F 57% 30.60 in 10.0 mi NNE 17.3 mph 24.2 mph N/A   Clear
9:55 AM 46.2 °F 39.0 °F 30.6 °F 54% 30.60 in 10.0 mi NNE 18.4 mph 23.0 mph N/A   Clear
10:15 AM 46.9 °F - 31.3 °F 55% 30.60 in 10.0 mi NNE 16.1 mph 20.7 mph N/A   Clear
10:35 AM 48.2 °F - 31.3 °F 52% 30.58 in 10.0 mi NNE 16.1 mph - N/A   Clear
10:55 AM 50.0 °F - 31.3 °F 49% 30.58 in 10.0 mi NNE 15.0 mph 24.2 mph N/A   Clear
11:15 AM 49.8 °F - 31.6 °F 50% 30.56 in 10.0 mi North 18.4 mph 23.0 mph N/A   Clear
11:35 AM 50.5 °F - 30.6 °F 46% 30.57 in 10.0 mi NNE 12.7 mph 18.4 mph N/A   Clear
11:55 AM 51.8 °F - 30.2 °F 44% 30.55 in 10.0 mi NNE 13.8 mph 17.3 mph N/A   Clear
12:15 PM 52.3 °F - 29.8 °F 42% 30.54 in 10.0 mi NNE 12.7 mph 18.4 mph N/A   Clear
12:35 PM 52.0 °F - 29.3 °F 42% 30.52 in 10.0 mi NNE 11.5 mph 17.3 mph N/A   Clear
12:55 PM 52.7 °F - 29.8 °F 42% 30.51 in 10.0 mi North 8.1 mph - N/A   Clear
1:35 PM 52.5 °F - 30.0 °F 42% 30.50 in 10.0 mi NNE 8.1 mph - N/A   Clear
1:55 PM 53.1 °F - 28.9 °F 40% 30.48 in 10.0 mi North 9.2 mph - N/A   Clear
2:15 PM 54.7 °F - 29.8 °F 39% 30.48 in 10.0 mi NNE 10.4 mph - N/A   Clear
2:35 PM 54.3 °F - 29.3 °F 38% 30.47 in 10.0 mi NE 10.4 mph - N/A   Clear
2:55 PM 55.2 °F - 28.6 °F 36% 30.46 in 10.0 mi NE 11.5 mph - N/A   Clear
3:15 PM 55.6 °F - 28.2 °F 35% 30.46 in 10.0 mi NE 5.8 mph - N/A   Clear
3:35 PM 55.6 °F - 28.6 °F 36% 30.45 in 10.0 mi NNE 8.1 mph - N/A   Clear
3:55 PM 55.6 °F - 28.2 °F 35% 30.45 in 10.0 mi NNE 9.2 mph - N/A   Clear
4:15 PM 54.9 °F - 28.2 °F 36% 30.45 in 10.0 mi NNE 9.2 mph - N/A   Clear
4:35 PM 54.0 °F - 28.6 °F 38% 30.45 in 10.0 mi NNE 8.1 mph - N/A   Clear
4:55 PM 53.6 °F - 29.3 °F 39% 30.45 in 10.0 mi Calm Calm - N/A   Clear
5:15 PM 52.7 °F - 30.7 °F 43% 30.45 in 10.0 mi NNE 3.5 mph - N/A   Clear
5:35 PM 51.1 °F - 31.5 °F 47% 30.44 in 10.0 mi NNE 4.6 mph - N/A   Clear
5:55 PM 49.5 °F - 32.0 °F 51% 30.44 in 10.0 mi NNE 5.8 mph - N/A   Clear
6:15 PM 49.1 °F - 32.0 °F 52% 30.44 in 10.0 mi NNE 5.8 mph - N/A   Clear
6:35 PM 48.4 °F - 32.4 °F 54% 30.44 in 10.0 mi NNE 5.8 mph - N/A   Clear
6:55 PM 47.5 °F - 32.5 °F 56% 30.44 in 10.0 mi North 4.6 mph - N/A   Clear
7:15 PM 46.9 °F - 32.9 °F 58% 30.44 in 10.0 mi NNE 4.6 mph - N/A   Clear
7:35 PM 46.6 °F - 33.8 °F 61% 30.45 in 10.0 mi North 4.6 mph - N/A   Clear
7:55 PM 46.9 °F - 33.8 °F 60% 30.46 in 10.0 mi NNE 3.5 mph - N/A   Clear
8:15 PM 48.2 °F - 34.2 °F 58% 30.45 in 10.0 mi NNE 4.6 mph - N/A   Clear
8:35 PM 47.3 °F - 34.7 °F 62% 30.46 in 10.0 mi North 4.6 mph - N/A   Clear
8:55 PM 46.6 °F - 34.7 °F 63% 30.45 in 10.0 mi NNE 4.6 mph - N/A   Clear
9:15 PM 45.1 °F 42.8 °F 34.7 °F 67% 30.44 in 10.0 mi NNE 4.6 mph - N/A   Clear
9:35 PM 44.2 °F 40.3 °F 34.5 °F 69% 30.44 in 10.0 mi North 6.9 mph - N/A   Clear
9:55 PM 44.2 °F 41.0 °F 33.8 °F 67% 30.44 in 10.0 mi North 5.8 mph - N/A   Clear
10:15 PM 45.0 °F 41.8 °F 34.0 °F 65% 30.44 in 10.0 mi North 5.8 mph - N/A   Clear
10:35 PM 42.8 °F 39.3 °F 33.8 °F 70% 30.43 in 10.0 mi North 5.8 mph - N/A   Clear
10:55 PM 43.2 °F 39.7 °F 34.0 °F 70% 30.43 in 10.0 mi North 5.8 mph - N/A   Clear
11:15 PM 43.9 °F 41.3 °F 34.0 °F 68% 30.42 in 10.0 mi North 4.6 mph - N/A   Clear
11:35 PM 42.6 °F 39.0 °F 33.6 °F 70% 30.42 in 10.0 mi North 5.8 mph - N/A   Clear
11:55 PM 41.9 °F 38.2 °F 34.0 °F 73% 30.41 in 10.0 mi NNW 5.8 mph - N/A   Clear